{"data":{"norad_id":68095,"epoch":"2026-09-19T19:03:01.446336Z","epoch_age_seconds":116465,"freshness":"FRESH","line1":"1 68095U 26042AC  26262.79376674  .00028362  00000+0  84688-3 0  9996","line2":"2 68095  53.1610 352.8465 0001137  70.6950 289.4175 15.34418423 32071","mean_motion":15.34418423,"eccentricity":0.0001137,"inclination_deg":53.161,"raan_deg":352.8465,"arg_perigee_deg":70.695,"mean_anomaly_deg":289.4175,"bstar":0.00084688,"rev_number":3207,"period_min":93.846631297909,"perigee_km":461.870686407,"apogee_km":463.426281026,"semimajor_km":6840.7854837165,"source":"CELESTRAK","updated_at":"2026-09-20T09:00:43.783689Z"}}